Weather History for Douglas, WY

Change the Weather History Date:

Saturday, March 30, 2013

  Actual Average Record
Temperature  
Mean Temperature 40 °F 40 °F  
Max Temperature 50 °F 53 °F 74 °F (2012)
Min Temperature 30 °F 26 °F 17 °F (2009)
Degree Days  
Heating Degree Days 25 25  
Month to date heating degree days 892 891  
Since 1 July heating degree days 5923 6291  
Cooling Degree Days 0 0  
Month to date cooling degree days 0 0  
Year to date cooling degree days 0 0  
Moisture  
Dew Point 34 °F    
Average Humidity 81    
Maximum Humidity 100    
Minimum Humidity 62    
Precipitation  
Precipitation 0.35 in 0.03 in 0.35 in (2013)
Month to date precipitation 0.44 0.82  
Year to date precipitation 0.93 1.61  
Sea Level Pressure  
Sea Level Pressure 30.16 in    
Wind  
Wind Speed 7 mph (NW)    
Max Wind Speed 24 mph    
Max Gust Speed 29 mph    
Visibility 8 miles    
Events Rain    
T = Trace of Precipitation, MM = Missing Value Source: NWS Daily Summary

Daily Weather History Graph

Daily Weather History Graph

Search for Another Location

Airport:

Trip Planner

Search our weather history database for the weather conditions in past years. The results will help you decide how hot, cold, wet, or windy it might be!

Date:

Astronomy

Mar. 30, 2013 Rise Set
Actual Time 6:46 AM MDT 7:25 PM MDT
Civil Twilight 6:18 AM MDT 7:54 PM MDT
Nautical Twilight 5:44 AM MDT 8:28 PM MDT
Astronomical Twilight 5:09 AM MDT 9:03 PM MDT
Moon 11:41 PM MDT (3/30) 8:38 AM MDT (3/30)
Length of Visible Light 13h 36m
Length of Day
12h 39m
Waning Gibbous, 86% of the Moon is Illuminated
Mar 30
Waning Gibbous
Apr 2
Last Quarter
Apr 10
New
Apr 18
First Quarter
Apr 25
Full

Hourly Weather History & Observations

Time (MDT) Temp. Windchill Dew Point Humidity Pressure Visibility Wind Dir Wind Speed Gust Speed Precip Events Conditions
12:53 AM 33.1 °F 27.7 °F 30.0 °F 89% 30.08 in 10.0 mi North 5.8 mph - N/A   Partly Cloudy
1:53 AM 35.1 °F 27.4 °F 32.0 °F 89% 30.08 in 10.0 mi WNW 10.4 mph - N/A   Scattered Clouds
2:53 AM 35.1 °F 30.1 °F 32.0 °F 89% 30.07 in 10.0 mi WNW 5.8 mph - N/A   Clear
3:53 AM 32.0 °F 28.7 °F 28.9 °F 88% 30.09 in 10.0 mi West 3.5 mph - N/A   Clear
4:53 AM 33.1 °F - 30.0 °F 89% 30.09 in 10.0 mi Calm Calm - N/A   Clear
5:53 AM 34.0 °F 31.0 °F 30.9 °F 89% 30.10 in 10.0 mi NNW 3.5 mph - N/A   Overcast
6:11 AM 33.8 °F 30.8 °F 30.2 °F 87% 30.15 in 10.0 mi NNW 3.5 mph - N/A   Overcast
6:31 AM 33.8 °F - 32.0 °F 93% 30.15 in 10.0 mi Calm Calm - N/A   Overcast
6:53 AM 34.0 °F - 32.0 °F 92% 30.11 in 10.0 mi Calm Calm - N/A   Overcast
7:53 AM 37.0 °F - 34.0 °F 89% 30.13 in 8.0 mi Calm Calm - 0.00 in Rain Light Rain
8:53 AM 37.9 °F 33.5 °F 36.0 °F 93% 30.15 in 8.0 mi NW 5.8 mph - 0.03 in Rain Light Rain
9:21 AM 37.4 °F 32.1 °F 35.6 °F 93% 30.16 in 4.0 mi NW 6.9 mph - 0.05 in Rain Rain
9:53 AM 37.9 °F 32.7 °F 36.0 °F 93% 30.17 in 4.0 mi WNW 6.9 mph - 0.09 in Rain Light Rain
10:16 AM 37.4 °F 30.8 °F 35.6 °F 93% 30.16 in 4.0 mi WNW 9.2 mph - 0.02 in Rain Light Rain
10:27 AM 37.4 °F 32.1 °F 35.6 °F 93% 30.16 in 5.0 mi WNW 6.9 mph - 0.03 in Rain Light Rain
10:34 AM 37.4 °F 30.3 °F 35.6 °F 93% 30.16 in 7.0 mi WNW 10.4 mph - 0.04 in Rain Light Rain
10:53 AM 35.1 °F 27.4 °F 33.1 °F 92% 30.19 in 3.0 mi WSW 10.4 mph - 0.07 in Rain Rain
11:05 AM 33.8 °F 26.4 °F 33.8 °F 100% 30.17 in 6.0 mi West 9.2 mph - 0.02 in Rain Light Rain
11:53 AM 36.0 °F 28.0 °F 36.0 °F 100% 30.21 in 5.0 mi WNW 11.5 mph - 0.07 in Rain Light Rain
12:02 PM 35.6 °F 28.6 °F 35.6 °F 100% 30.18 in 4.0 mi WNW 9.2 mph - 0.01 in Rain Rain
12:29 PM 37.4 °F 30.8 °F 37.4 °F 100% 30.16 in 10.0 mi West 9.2 mph - 0.03 in Rain Light Rain
12:43 PM 39.2 °F 30.8 °F 39.2 °F 100% 30.16 in 10.0 mi West 15.0 mph - 0.03 in   Overcast
12:53 PM 41.0 °F 33.5 °F 41.0 °F 100% 30.19 in 10.0 mi West 13.8 mph - 0.03 in   Overcast
1:53 PM 46.0 °F 39.9 °F 44.1 °F 93% 30.15 in 10.0 mi WNW 13.8 mph - 0.00 in   Mostly Cloudy
2:53 PM 41.0 °F 31.6 °F 36.0 °F 82% 30.18 in 10.0 mi North 20.7 mph 28.8 mph 0.00 in Rain Light Rain
3:00 PM 39.2 °F 30.2 °F 35.6 °F 87% 30.15 in 8.0 mi North 17.3 mph - 0.00 in Rain Light Rain
3:53 PM 39.9 °F 32.9 °F 37.0 °F 89% 30.19 in 5.0 mi NW 11.5 mph - 0.04 in Rain Light Rain
4:00 PM 39.2 °F 32.0 °F 37.4 °F 93% 30.15 in 10.0 mi NW 11.5 mph - 0.00 in Rain Light Rain
4:53 PM 44.1 °F 38.1 °F 37.0 °F 76% 30.16 in 10.0 mi NNW 11.5 mph - 0.01 in Rain Light Rain
5:53 PM 48.0 °F - 36.0 °F 63% 30.15 in 10.0 mi NW 11.5 mph - 0.01 in   Overcast
6:53 PM 45.0 °F 37.6 °F 34.0 °F 65% 30.17 in 10.0 mi North 17.3 mph - N/A   Scattered Clouds
7:53 PM 43.0 °F 37.2 °F 30.9 °F 62% 30.17 in 10.0 mi NW 10.4 mph - N/A   Clear
8:53 PM 36.0 °F 33.3 °F 30.9 °F 82% 30.21 in 10.0 mi NW 3.5 mph - N/A   Scattered Clouds
9:53 PM 37.0 °F 34.5 °F 32.0 °F 82% 30.21 in 10.0 mi NW 3.5 mph - N/A   Scattered Clouds
10:53 PM 34.0 °F - 30.0 °F 85% 30.23 in 10.0 mi Calm Calm - N/A   Clear
11:53 PM 30.9 °F - 28.0 °F 89% 30.23 in 10.0 mi Calm Calm - N/A   Clear